Championnat du Nord Open Hiver

Compétition Départementale

SAINT-POL-SUR-MER

Du Samedi 04 Novembre 2017 au Dimanche 05 Novembre 2017

Bassin de 25m

50 Nage Libre Dames

Séries

Nom Année Temps Pts Club Pays
1 HODONOU Agathe 2002 0:26:95 1161 US ST-ANDRÉ FRA
2 HODONOU Agathe 2002 0:26:95 1161 US ST-ANDRÉ FRA
3 LEPERS Julia 2001 0:27:94 1091 ROUBAIX NATATION FRA
4 LEPERS Julia 2001 0:27:94 1091 ROUBAIX NATATION FRA
5 HURTRELLE Lou 2003 0:28:01 1086 DUNKERQUE NATATION FRA
6 HURTRELLE Lou 2003 0:28:01 1086 DUNKERQUE NATATION FRA
7 DELOBEL Mélaine 1998 0:28:45 1056 SO ARMENTIÈRES FRA
8 DELOBEL Mélaine 1998 0:28:45 1056 SO ARMENTIÈRES FRA
9 DUPRE Julie 2001 0:28:67 1041 MARCQ NATATION FRA
10 DUPRE Julie 2001 0:28:67 1041 MARCQ NATATION FRA
11 PREVOTS Florine 1995 0:29:24 1002 RONCHIN OLYMPIQUE CLUB FRA
12 PREVOTS Florine 1995 0:29:24 1002 RONCHIN OLYMPIQUE CLUB FRA
13 PROOT Adéle 2000 0:29:33 996 SO ARMENTIÈRES FRA
14 PROOT Adéle 2000 0:29:33 996 SO ARMENTIÈRES FRA
15 DEMONCHAUX Lisa 2002 0:29:44 989 CN CAMBRAI FRA
16 DEMONCHAUX Lisa 2002 0:29:44 989 CN CAMBRAI FRA
17 HUGUET Cassandre 2004 0:29:57 980 US ST-ANDRÉ FRA
18 HUGUET Cassandre 2004 0:29:57 980 US ST-ANDRÉ FRA
19 DEVULDER Eline 2000 0:29:62 977 DUNKERQUE NATATION FRA
20 DEVULDER Eline 2000 0:29:62 977 DUNKERQUE NATATION FRA
21 LEFEBVRE Oriane 2004 0:29:66 974 CN CAMBRAI FRA
22 FENTE DAMERS Sara 2005 0:29:66 974 AVAN VILLENEUVE-D'ASCQ FRA
23 LEFEBVRE Oriane 2004 0:29:66 974 CN CAMBRAI FRA
24 FENTE DAMERS Sara 2005 0:29:66 974 AVAN VILLENEUVE-D'ASCQ FRA
25 VANDEWALLE Lea 2002 0:29:71 971 CN CAMBRAI FRA
26 MOREIRA Julia 2001 0:29:71 971 US ST-ANDRÉ FRA
27 VANDEWALLE Lea 2002 0:29:71 971 CN CAMBRAI FRA
28 MOREIRA Julia 2001 0:29:71 971 US ST-ANDRÉ FRA
29 LEROUGE Laurine 2002 0:29:83 963 CN CAMBRAI FRA
30 LEROUGE Laurine 2002 0:29:83 963 CN CAMBRAI FRA
31 RENARD Camille 2003 0:29:92 957 CN CROIX FRA
32 RENARD Camille 2003 0:29:92 957 CN CROIX FRA
33 BIKARD Jade 2000 0:30:01 951 LILLE UC NATATION FRA
34 BIKARD Jade 2000 0:30:01 951 LILLE UC NATATION FRA
35 BEAUVOIS Clara 2001 0:30:35 929 CN CAMBRAI FRA
36 BEAUVOIS Clara 2001 0:30:35 929 CN CAMBRAI FRA
37 PETIT Marion 2002 0:30:44 924 DUNKERQUE NATATION FRA
38 PETIT Marion 2002 0:30:44 924 DUNKERQUE NATATION FRA
39 GOBERT Eleonore 2000 0:30:52 919 ROUBAIX NATATION FRA
40 GOBERT Eleonore 2000 0:30:52 919 ROUBAIX NATATION FRA
41 VANDERSLUYS Léa 2002 0:30:53 918 DUNKERQUE NATATION FRA
42 VANDERSLUYS Léa 2002 0:30:53 918 DUNKERQUE NATATION FRA
43 JURKIW Clarisse 2000 0:30:62 912 SO ARMENTIÈRES FRA
44 JURKIW Clarisse 2000 0:30:62 912 SO ARMENTIÈRES FRA
45 DUBOIS Louise 1999 0:30:64 911 SECLIN NATATION FRA
46 DUBOIS Louise 1999 0:30:64 911 SECLIN NATATION FRA
47 DELVALLEE Lea 2003 0:30:72 906 ST-AMAND NAT PORTE DU HAINAUT FRA
48 DUSSART Melissa 2002 0:30:72 906 ST-AMAND NAT PORTE DU HAINAUT FRA
49 DELVALLEE Lea 2003 0:30:72 906 ST-AMAND NAT PORTE DU HAINAUT FRA
50 DUSSART Melissa 2002 0:30:72 906 ST-AMAND NAT PORTE DU HAINAUT FRA
51 VANDEKERCKHOVE Soleane 2004 0:30:73 905 AVAN VILLENEUVE-D'ASCQ FRA
52 VANDEKERCKHOVE Soleane 2004 0:30:73 905 AVAN VILLENEUVE-D'ASCQ FRA
53 MOTURY Juliette 2000 0:30:75 904 MARCQ NATATION FRA
54 MOTURY Juliette 2000 0:30:75 904 MARCQ NATATION FRA
55 DUPAS Emmy 2003 0:30:84 898 CN CAMBRAI FRA
56 MUYLLE Cloé 2005 0:30:84 898 US ST-ANDRÉ FRA
57 DUPAS Emmy 2003 0:30:84 898 CN CAMBRAI FRA
58 MUYLLE Cloé 2005 0:30:84 898 US ST-ANDRÉ FRA
59 CARON Anaelle 2002 0:30:86 897 FNC DOUAI FRA
60 CARON Anaelle 2002 0:30:86 897 FNC DOUAI FRA
61 LERMOYER Josephine 2003 0:30:97 890 FNC DOUAI FRA
62 LERMOYER Josephine 2003 0:30:97 890 FNC DOUAI FRA
63 BAVAY Alyssia 2003 0:31:00 888 CN CAMBRAI FRA
64 BAVAY Alyssia 2003 0:31:00 888 CN CAMBRAI FRA
65 QUIRET Lisa 2001 0:31:21 875 RONCHIN OLYMPIQUE CLUB FRA
66 QUIRET Lisa 2001 0:31:21 875 RONCHIN OLYMPIQUE CLUB FRA
67 JUBERT Lisa 2002 0:31:23 874 CN CAMBRAI FRA
68 JUBERT Lisa 2002 0:31:23 874 CN CAMBRAI FRA
69 LE CARDINAL Solène 2002 0:31:27 871 MARCQ NATATION FRA
70 LE CARDINAL Solène 2002 0:31:27 871 MARCQ NATATION FRA
71 LEMPIN Elise 2005 0:31:31 869 GRAVELINES NATATION FRA
72 LEMPIN Elise 2005 0:31:31 869 GRAVELINES NATATION FRA
73 TRICHOT Clara 2004 0:31:34 867 AVAN VILLENEUVE-D'ASCQ FRA
74 TRICHOT Clara 2004 0:31:34 867 AVAN VILLENEUVE-D'ASCQ FRA
75 OGIEZ Louise 2003 0:31:40 863 SECLIN NATATION FRA
76 OGIEZ Louise 2003 0:31:40 863 SECLIN NATATION FRA
77 DERDOUM Sabrina 2002 0:31:46 859 CN CROIX FRA
78 DERDOUM Sabrina 2002 0:31:46 859 CN CROIX FRA
79 DEWEES Laly 2003 0:31:49 857 OLYMPIQUE GRANDE-SYNTHE FRA
80 DEWEES Laly 2003 0:31:49 857 OLYMPIQUE GRANDE-SYNTHE FRA
81 HUCHIN Camille 2003 0:31:50 857 DUNKERQUE NATATION FRA
82 HUCHIN Camille 2003 0:31:50 857 DUNKERQUE NATATION FRA
83 FRANCOIS Justine 2002 0:31:56 853 SECLIN NATATION FRA
84 FRANCOIS Justine 2002 0:31:56 853 SECLIN NATATION FRA
85 VITSE Camille 2002 0:31:60 851 MARCQ NATATION FRA
86 VITSE Camille 2002 0:31:60 851 MARCQ NATATION FRA
87 TAILLIEU Flavie 2005 0:31:63 849 US ST-ANDRÉ FRA
88 MARTIN Solene 2002 0:31:63 849 SO ARMENTIÈRES FRA
89 TAILLIEU Flavie 2005 0:31:63 849 US ST-ANDRÉ FRA
90 MARTIN Solene 2002 0:31:63 849 SO ARMENTIÈRES FRA
91 BECAR Evangeline 2002 0:31:80 838 CN FOURMIES FRA
92 BECAR Evangeline 2002 0:31:80 838 CN FOURMIES FRA
93 FENTE DAMERS Sophia 2003 0:31:86 835 AVAN VILLENEUVE-D'ASCQ FRA
94 FENTE DAMERS Sophia 2003 0:31:86 835 AVAN VILLENEUVE-D'ASCQ FRA
95 DE-MOOR Léa 2003 0:31:87 834 LILLE UC NATATION FRA
96 DE-MOOR Léa 2003 0:31:87 834 LILLE UC NATATION FRA
97 DIAS Zoé 2003 0:31:94 830 DUNKERQUE NATATION FRA
98 DIAS Zoé 2003 0:31:94 830 DUNKERQUE NATATION FRA
99 RENARD Manon 2006 0:31:96 829 AVAN VILLENEUVE-D'ASCQ FRA
100 CARLIER Solene 2003 0:31:96 829 CN CAMBRAI FRA
101 OURDOUILLIE Marine 2003 0:31:96 829 ST-AMAND NAT PORTE DU HAINAUT FRA
102 RENARD Manon 2006 0:31:96 829 AVAN VILLENEUVE-D'ASCQ FRA
103 CARLIER Solene 2003 0:31:96 829 CN CAMBRAI FRA
104 OURDOUILLIE Marine 2003 0:31:96 829 ST-AMAND NAT PORTE DU HAINAUT FRA
105 DENDONCKER Clemence 2005 0:31:99 827 ROUBAIX NATATION FRA
106 DENDONCKER Clemence 2005 0:31:99 827 ROUBAIX NATATION FRA
107 GIANNUZZO Ornella 2001 0:32:17 816 MARCQ NATATION FRA
108 GIANNUZZO Ornella 2001 0:32:17 816 MARCQ NATATION FRA
109 COUPEZ Romane 2003 0:32:27 810 NSH JEUMONT FRA
110 COUPEZ Romane 2003 0:32:27 810 NSH JEUMONT FRA
111 LIEBERT Meline 2002 0:32:34 806 CN FOURMIES FRA
112 LIEBERT Meline 2002 0:32:34 806 CN FOURMIES FRA
113 BOURET Léa 2005 0:32:36 804 GRAVELINES NATATION FRA
114 BOURET Léa 2005 0:32:36 804 GRAVELINES NATATION FRA
115 CARLIER Marine 2003 0:32:45 799 MARCQ NATATION FRA
116 CARLIER Marine 2003 0:32:45 799 MARCQ NATATION FRA
117 PINOIT Joséphine 2003 0:32:50 796 LILLE UC NATATION FRA
118 PINOIT Joséphine 2003 0:32:50 796 LILLE UC NATATION FRA
119 TALLEUX Adèle 2001 0:32:57 792 GRAVELINES NATATION FRA
120 TALLEUX Adèle 2001 0:32:57 792 GRAVELINES NATATION FRA
121 DEBLONDE Lucie 2003 0:32:63 788 GRAVELINES NATATION FRA
122 DEBLONDE Lucie 2003 0:32:63 788 GRAVELINES NATATION FRA
123 VERDIER Lisa 2006 0:32:65 787 MARCQ NATATION FRA
124 VERDIER Lisa 2006 0:32:65 787 MARCQ NATATION FRA
125 DIAS Julie 2004 0:32:85 775 WEPPES NATATION FRA
126 DIAS Julie 2004 0:32:85 775 WEPPES NATATION FRA
127 JOONNEKINDT Nathanaëlle 2004 0:33:16 757 GRAVELINES NATATION FRA
128 JOONNEKINDT Nathanaëlle 2004 0:33:16 757 GRAVELINES NATATION FRA
129 CARON DEBERGUES Apoline 2004 0:33:19 755 FNC DOUAI FRA
130 CARON DEBERGUES Apoline 2004 0:33:19 755 FNC DOUAI FRA
131 PISTONE Calia 2004 0:33:39 744 CN HALLUIN FRA
132 PISTONE Calia 2004 0:33:39 744 CN HALLUIN FRA
133 DEBAQUE Elise 2004 0:33:41 743 SECLIN NATATION FRA
134 DEBAQUE Elise 2004 0:33:41 743 SECLIN NATATION FRA
135 CHERMEUX Axelle 2005 0:33:43 742 GRAVELINES NATATION FRA
136 CHERMEUX Axelle 2005 0:33:43 742 GRAVELINES NATATION FRA
137 BROUSSE Adèle 2007 0:33:44 741 CN FOURMIES FRA
138 COUTEL Apolline 2004 0:33:44 741 CN CROIX FRA
139 BROUSSE Adèle 2007 0:33:44 741 CN FOURMIES FRA
140 COUTEL Apolline 2004 0:33:44 741 CN CROIX FRA
141 CANTOIS Lisa 2003 0:33:54 735 DUNKERQUE NATATION FRA
142 CANTOIS Lisa 2003 0:33:54 735 DUNKERQUE NATATION FRA
143 FEUTRY Lola 2004 0:33:55 735 CN CAMBRAI FRA
144 FEUTRY Lola 2004 0:33:55 735 CN CAMBRAI FRA
145 MECHTAOUI Sarah 2004 0:33:62 731 CN CROIX FRA
146 MECHTAOUI Sarah 2004 0:33:62 731 CN CROIX FRA
147 MORTUAIRE Célia 2004 0:33:70 726 CN SOMAIN FRA
148 NORBERT DE JESUS Cecilia 2004 0:33:70 726 ROUBAIX NATATION FRA
149 MORTUAIRE Célia 2004 0:33:70 726 CN SOMAIN FRA
150 NORBERT DE JESUS Cecilia 2004 0:33:70 726 ROUBAIX NATATION FRA
151 CHEVALIER Léa 2005 0:33:81 720 GRAVELINES NATATION FRA
152 CHEVALIER Léa 2005 0:33:81 720 GRAVELINES NATATION FRA
153 MINET Fantine 2001 0:33:83 719 OLYMPIQUE GRANDE-SYNTHE FRA
154 MINET Fantine 2001 0:33:83 719 OLYMPIQUE GRANDE-SYNTHE FRA
155 LEROY Sarah 2006 0:33:86 717 US ST-ANDRÉ FRA
156 LEROY Sarah 2006 0:33:86 717 US ST-ANDRÉ FRA
157 DUPONT Sarah 2005 0:33:92 714 SECLIN NATATION FRA
158 DUPONT Sarah 2005 0:33:92 714 SECLIN NATATION FRA
159 CARON Eloise 2005 0:33:94 713 FNC DOUAI FRA
160 CARON Eloise 2005 0:33:94 713 FNC DOUAI FRA
161 JACOB Linda-Mariah 2006 0:34:00 709 OLYMPIQUE GRANDE-SYNTHE FRA
162 JACOB Linda-Mariah 2006 0:34:00 709 OLYMPIQUE GRANDE-SYNTHE FRA
163 VANDENBERGEN Axelle 2003 0:34:03 707 S.N DU CAUDRESIS-CATESIS FRA
164 VANDENBERGEN Axelle 2003 0:34:03 707 S.N DU CAUDRESIS-CATESIS FRA
165 HAMMICHE Anissa 2004 0:34:09 704 ROUBAIX NATATION FRA
166 HAMMICHE Anissa 2004 0:34:09 704 ROUBAIX NATATION FRA
167 DOUBLET Lou-Anne 2004 0:34:28 694 GRAVELINES NATATION FRA
168 DOUBLET Lou-Anne 2004 0:34:28 694 GRAVELINES NATATION FRA
169 MEERT Laurine 2004 0:34:39 687 NSH JEUMONT FRA
170 MEERT Laurine 2004 0:34:39 687 NSH JEUMONT FRA
171 ELACHACHI Lyn 2006 0:34:41 686 US ST-ANDRÉ FRA
172 ELACHACHI Lyn 2006 0:34:41 686 US ST-ANDRÉ FRA
173 PEREIRA Zelie 2005 0:34:42 686 AVAN VILLENEUVE-D'ASCQ FRA
174 PEREIRA Zelie 2005 0:34:42 686 AVAN VILLENEUVE-D'ASCQ FRA
175 CHERMEUX Clémence 2005 0:34:53 680 GRAVELINES NATATION FRA
176 CHERMEUX Clémence 2005 0:34:53 680 GRAVELINES NATATION FRA
177 DUBOC Eléonore 2006 0:34:61 675 HIPPOCAMPES HAUTMONT FRA
178 DUBOC Eléonore 2006 0:34:61 675 HIPPOCAMPES HAUTMONT FRA
179 ZAROURI Imene 2006 0:34:84 663 ROUBAIX NATATION FRA
180 ZAROURI Imene 2006 0:34:84 663 ROUBAIX NATATION FRA
181 MARTINACHE Elise 2007 0:34:95 657 ROUBAIX NATATION FRA
182 MARTINACHE Elise 2007 0:34:95 657 ROUBAIX NATATION FRA
183 REY Lea 2005 0:34:99 655 OLYMPIQUE GRANDE-SYNTHE FRA
184 REY Lea 2005 0:34:99 655 OLYMPIQUE GRANDE-SYNTHE FRA
185 NOEL Lea 2005 0:35:09 649 WEPPES NATATION FRA
186 NOEL Lea 2005 0:35:09 649 WEPPES NATATION FRA
187 FOURNIER Yaëlle 2006 0:35:21 643 GRAVELINES NATATION FRA
188 FOURNIER Yaëlle 2006 0:35:21 643 GRAVELINES NATATION FRA
189 CAUCHY Noemie 2006 0:35:22 642 SO ARMENTIÈRES FRA
190 CAUCHY Noemie 2006 0:35:22 642 SO ARMENTIÈRES FRA
191 LAGACHE-LEMASCON Candice 2007 0:35:23 642 OLYMPIQUE GRANDE-SYNTHE FRA
192 LAGACHE-LEMASCON Candice 2007 0:35:23 642 OLYMPIQUE GRANDE-SYNTHE FRA
193 GERGIANAKIS Amalia 2004 0:35:39 633 AVAN VILLENEUVE-D'ASCQ FRA
194 GERGIANAKIS Amalia 2004 0:35:39 633 AVAN VILLENEUVE-D'ASCQ FRA
195 LARD Loïse 2006 0:36:13 594 AVAN VILLENEUVE-D'ASCQ FRA
196 LARD Loïse 2006 0:36:13 594 AVAN VILLENEUVE-D'ASCQ FRA
197 DUHAMEL Alicia 2006 0:36:28 587 GRAVELINES NATATION FRA
198 DUHAMEL Alicia 2006 0:36:28 587 GRAVELINES NATATION FRA
199 DUSART Elsa 2007 0:37:13 544 AVAN VILLENEUVE-D'ASCQ FRA
200 DUSART Elsa 2007 0:37:13 544 AVAN VILLENEUVE-D'ASCQ FRA
201 DECRAENE Sioban 2007 0:38:57 475 ROUBAIX NATATION FRA
202 DECRAENE Sioban 2007 0:38:57 475 ROUBAIX NATATION FRA
ROUBAIX NATATION